User: anonymous   Login
Location: Trois-Rivi�res
(46.3500°N, 72.5500°W)
Time: 16:53:52
(UTC-04:00)
Language:

Cosmos 1975 - Orbit

View from above orbital plane
View from above orbital plane
View from above satellite
View from above satellite

Ground track
Ground track

The orbit data is extracted from the following two-line orbital elements,

1 19573U 88093A   15085.18577585  .00004702  00000-0  35435-3 0  9994
2 19573 082.5218 052.1456 0014672 180.5237 179.5976 15.02189452437502
Epoch (UTC): 26 March 2015 04:27:31
Eccentricity: 0.0014672
inclination: 82.5218°
perigee height: 550 km
apogee height: 570 km
right ascension of ascending node: 52.1456°
argument of perigee: 180.5237°
revolutions per day: 15.02189452
mean anomaly at epoch: 179.5976°
orbit number at epoch: 43750

The dashed part of the orbit path shows where the satellite is in the earth's shadow,  

DLR